Location: Filler
(36.7551°N, 30.4456°E)
Time: 06:33:15
(UTC+00:00)

FENGYUN 3A - Pass Details

Date: 19 September 2024
Orbit: 821 x 835 km, 98.6° (Epoch: 12 October)

Event Time Altitude Azimuth Distance (km) Brightness Sun altitude
Rises 00:55:04 0° 3° (N) 3,365 7.2 -33.0°
Reaches altitude 10° 00:57:35 10° 355° (N) 2,426 6.3 -32.6°
Enters shadow 00:59:12 19° 345° (NNW) 1,879 5.6 -32.3°
